Вернуться в каталог

USA 470

АктивенВоенныеVLEO
NORAD 62539·PAYLOAD·🇺🇸 United States

Запущен Jan 10, 2025 с Vandenberg Space Force Base

Loading…

Ближайшие Пролёты (ближайшие 24 часа)

TLE

УстаревшееSource: Mike McCants

Эпоха: Aug 21, 2026, 19:53 UTC

1 62539U 25005H   26233.82916342 0.00000000  00000-0  00000-0 0    01
2 62539  70.0194 237.3194 0002000 176.2445 183.7555 14.96713687    04

Отслеживайте USA 470 в реальном времени с AllMySat

Download on the App Store